Big Rapids, MI

11:34 PM EDT on September 18, 2019 (GMT -0400)
Roben-Hood

Weather History for KRQB - July, 2019

Change the Weather History Date:

Wednesday, July 31, 2019

  Actual Average Record
Temperature  
Mean Temperature 62 °F -  
Max Temperature 76 °F 80 °F 95 °F (2001)
Min Temperature 49 °F 54 °F 43 °F (1971)
Degree Days  
Heating Degree Days 2    
Growing Degree Days 12 (Base 50)    
Moisture  
Dew Point 49 °F    
Average Humidity 66    
Maximum Humidity 96    
Minimum Humidity 30    
Precipitation  
Precipitation 0.00 in - - ()
Sea Level Pressure  
Sea Level Pressure 30.16 in    
Wind  
Wind Speed 2 mph (NNE)    
Max Wind Speed 12 mph    
Max Gust Speed -    
Visibility 10 miles    
Events      
Averages and records for this station are not official NWS values.
T = Trace of Precipitation, MM = Missing Value Source: NWS Daily Summary

Daily Weather History Graph

Daily Weather History Graph

Search for Another Location

Airport or City:

Astronomy

Jul. 31, 2019 Rise Set
Actual Time 6:29 AM EDT 9:06 PM EDT
Civil Twilight 5:56 AM EDT 9:39 PM EDT
Nautical Twilight 5:15 AM EDT 10:20 PM EDT
Astronomical Twilight 4:28 AM EDT 11:07 PM EDT
Moon 5:40 AM EDT (7/31) 9:06 PM EDT (7/31)
Length of Visible Light 15h 42m
Length of Day
14h 36m
Waning Crescent, 0% of the Moon is Illuminated
Jul 31
Waning Crescent
Jul 31
New
Aug 7
First Quarter
Aug 15
Full
Aug 23
Last Quarter

Hourly Weather History & Observations

Time (EDT) Temp. Dew Point Humidity Pressure Visibility Wind Dir Wind Speed Gust Speed Precip Events Conditions
12:00 AM 58.6 °F 53.2 °F 82% 30.12 in 10.0 mi Calm Calm - N/A   Clear
12:18 AM 58.1 °F 53.1 °F 83% 30.12 in 10.0 mi Calm Calm - N/A   Clear
12:36 AM 57.6 °F 52.9 °F 84% 30.12 in 10.0 mi Calm Calm - N/A   Clear
12:55 AM 55.6 °F 52.5 °F 89% 30.12 in 10.0 mi Calm Calm - N/A   Clear
12:56 AM 55.6 °F 52.7 °F 90% 30.12 in 10.0 mi Calm Calm - N/A   Clear
1:15 AM 56.3 °F 52.7 °F 88% 30.12 in 10.0 mi Calm Calm - N/A   Clear
1:16 AM 56.3 °F 52.7 °F 88% 30.12 in 10.0 mi Calm Calm - N/A   Clear
1:57 AM 55.4 °F 51.8 °F 88% 30.12 in 10.0 mi Calm Calm - N/A   Clear
2:15 AM 54.7 °F 52.2 °F 91% 30.12 in 10.0 mi Calm Calm - N/A   Clear
2:35 AM 52.7 °F 50.9 °F 94% 30.12 in 10.0 mi Calm Calm - N/A   Clear
2:36 AM 52.7 °F 50.9 °F 94% 30.12 in 10.0 mi Calm Calm - N/A   Clear
2:55 AM 53.2 °F 51.4 °F 94% 30.12 in 10.0 mi Calm Calm - N/A   Clear
3:17 AM 53.2 °F 51.3 °F 93% 30.12 in 10.0 mi Calm Calm - N/A   Clear
3:35 AM 52.7 °F 50.9 °F 94% 30.12 in 10.0 mi Calm Calm - N/A   Clear
3:36 AM 52.7 °F 50.9 °F 94% 30.12 in 10.0 mi Calm Calm - N/A   Clear
3:55 AM 51.8 °F 49.8 °F 93% 30.13 in 10.0 mi Calm Calm - N/A   Clear
4:15 AM 52.0 °F 50.2 °F 94% 30.13 in 10.0 mi Calm Calm - N/A   Clear
4:38 AM 50.9 °F 49.3 °F 94% 30.14 in 10.0 mi Calm Calm - N/A   Clear
4:56 AM 51.3 °F 50.0 °F 95% 30.14 in 10.0 mi Calm Calm - N/A   Clear
5:15 AM 51.8 °F 50.2 °F 94% 30.14 in 10.0 mi Calm Calm - N/A   Clear
5:16 AM 51.6 °F 50.0 °F 94% 30.14 in 10.0 mi Calm Calm - N/A   Clear
5:35 AM 50.2 °F 49.1 °F 96% 30.14 in 10.0 mi Calm Calm - N/A   Clear
5:59 AM 51.3 °F 49.6 °F 94% 30.15 in 10.0 mi Calm Calm - N/A   Clear
6:17 AM 50.0 °F 48.2 °F 94% 30.16 in 10.0 mi Calm Calm - N/A   Clear
6:35 AM 49.8 °F 48.4 °F 95% 30.16 in 10.0 mi Calm Calm - N/A   Clear
6:36 AM 49.8 °F 48.6 °F 95% 30.16 in 10.0 mi Calm Calm - N/A   Clear
6:55 AM 49.6 °F 48.4 °F 95% 30.16 in 10.0 mi Calm Calm - N/A   Clear
6:56 AM 49.6 °F 48.4 °F 95% 30.16 in 10.0 mi Calm Calm - N/A   Clear
7:19 AM 50.7 °F 49.5 °F 95% 30.17 in 10.0 mi Calm Calm - N/A   Clear
7:37 AM 51.6 °F 50.4 °F 95% 30.17 in 10.0 mi NNE 4.6 mph - N/A   Clear
7:55 AM 53.6 °F 52.2 °F 95% 30.18 in 10.0 mi Calm Calm - N/A   Clear
7:56 AM 53.8 °F 52.2 °F 94% 30.18 in 10.0 mi Calm Calm - N/A   Clear
8:15 AM 55.2 °F 52.7 °F 91% 30.18 in 10.0 mi Calm Calm - N/A   Clear
8:16 AM 55.4 °F 52.7 °F 91% 30.18 in 10.0 mi Calm Calm - N/A   Clear
8:35 AM 56.1 °F 52.0 °F 86% 30.19 in 10.0 mi NNE 6.9 mph - N/A   Clear
8:40 AM 56.3 °F 51.6 °F 84% 30.19 in 10.0 mi NNE 4.6 mph - N/A   Clear
8:58 AM 57.2 °F 50.4 °F 78% 30.19 in 10.0 mi Calm Calm - N/A   Clear
9:16 AM 58.5 °F 49.6 °F 72% 30.19 in 10.0 mi NNE 8.1 mph - N/A   Clear
9:35 AM 59.9 °F 47.1 °F 63% 30.19 in 10.0 mi NE 5.8 mph - N/A   Clear
9:36 AM 59.9 °F 46.8 °F 62% 30.19 in 10.0 mi ENE 5.8 mph - N/A   Clear
9:55 AM 60.8 °F 45.5 °F 57% 30.19 in 10.0 mi ENE 5.8 mph - N/A   Clear
10:19 AM 62.4 °F 46.8 °F 57% 30.19 in 10.0 mi North 4.6 mph - N/A   Clear
10:55 AM 63.9 °F 46.0 °F 52% 30.20 in 10.0 mi Calm Calm - N/A   Clear
11:15 AM 65.3 °F 45.9 °F 49% 30.20 in 10.0 mi North 5.8 mph - N/A   Clear
11:16 AM 65.3 °F 45.7 °F 49% 30.20 in 10.0 mi NNW 4.6 mph - N/A   Clear
11:35 AM 66.2 °F 46.4 °F 49% 30.20 in 10.0 mi North 5.8 mph - N/A   Clear
11:40 AM 66.6 °F 44.8 °F 45% 30.20 in 10.0 mi NW 3.5 mph - N/A   Clear
11:58 AM 68.0 °F 44.6 °F 43% 30.20 in 10.0 mi North 5.8 mph - N/A   Clear
12:16 PM 69.3 °F 47.7 °F 46% 30.19 in 10.0 mi NNE 3.5 mph - N/A   Clear
12:35 PM 69.1 °F 45.9 °F 43% 30.19 in 10.0 mi NW 3.5 mph - N/A   Clear
12:55 PM 69.6 °F 45.5 °F 42% 30.19 in 10.0 mi NNE 5.8 mph - N/A   Clear
12:56 PM 69.6 °F 45.5 °F 42% 30.19 in 10.0 mi NNE 4.6 mph - N/A   Clear
1:18 PM 71.2 °F 48.6 °F 45% 30.19 in 10.0 mi NNW 5.8 mph - N/A   Clear
1:36 PM 71.4 °F 47.5 °F 42% 30.19 in 10.0 mi North 6.9 mph - N/A   Clear
1:55 PM 72.5 °F 49.8 °F 45% 30.18 in 10.0 mi North 6.9 mph - N/A   Clear
1:56 PM 72.5 °F 49.5 °F 44% 30.18 in 10.0 mi North 5.8 mph - N/A   Clear
2:15 PM 72.5 °F 47.5 °F 41% 30.18 in 10.0 mi ENE 5.8 mph - N/A   Clear
2:35 PM 73.6 °F 47.3 °F 39% 30.17 in 10.0 mi East 6.9 mph - N/A   Clear
2:40 PM 73.6 °F 46.4 °F 38% 30.17 in 10.0 mi SE 3.5 mph - N/A   Clear
2:58 PM 73.8 °F 45.3 °F 36% 30.17 in 10.0 mi NNW 5.8 mph - N/A   Clear
3:16 PM 74.7 °F 47.1 °F 38% 30.17 in 10.0 mi Calm Calm - N/A   Clear
3:35 PM 74.7 °F 45.7 °F 36% 30.17 in 10.0 mi East 4.6 mph - N/A   Clear
3:36 PM 74.7 °F 45.7 °F 36% 30.17 in 10.0 mi East 5.8 mph - N/A   Clear
3:55 PM 75.2 °F 45.5 °F 35% 30.17 in 10.0 mi SE 4.6 mph - N/A   Clear
4:18 PM 76.3 °F 45.3 °F 33% 30.16 in 10.0 mi North 8.1 mph - N/A   Scattered Clouds
4:35 PM 76.3 °F 46.0 °F 34% 30.16 in 10.0 mi NNE 5.8 mph - N/A   Scattered Clouds
4:36 PM 76.1 °F 45.7 °F 34% 30.16 in 10.0 mi NNE 5.8 mph - N/A   Scattered Clouds
4:55 PM 75.6 °F 44.8 °F 33% 30.15 in 10.0 mi East 5.8 mph - N/A   Scattered Clouds
4:56 PM 75.7 °F 45.5 °F 34% 30.15 in 10.0 mi ENE 6.9 mph - N/A   Scattered Clouds
5:15 PM 76.3 °F 44.4 °F 32% 30.15 in 10.0 mi NNE 4.6 mph - N/A   Scattered Clouds
5:38 PM 76.8 °F 45.0 °F 32% 30.15 in 10.0 mi NNE 5.8 mph - N/A   Scattered Clouds
5:56 PM 76.1 °F 43.0 °F 31% 30.15 in 10.0 mi NNW 3.5 mph - N/A   Clear
6:15 PM 76.5 °F 43.0 °F 30% 30.15 in 10.0 mi NNW 3.5 mph - N/A   Clear
6:16 PM 76.3 °F 43.0 °F 30% 30.15 in 10.0 mi NW 3.5 mph - N/A   Clear
6:35 PM 75.7 °F 43.5 °F 32% 30.14 in 10.0 mi Calm Calm - N/A   Clear
6:59 PM 75.2 °F 45.7 °F 35% 30.14 in 10.0 mi East 3.5 mph - N/A   Clear
7:17 PM 74.8 °F 46.0 °F 36% 30.14 in 10.0 mi East 3.5 mph - N/A   Clear
7:35 PM 74.5 °F 45.7 °F 36% 30.14 in 10.0 mi ENE 4.6 mph - N/A   Clear
7:36 PM 74.5 °F 45.7 °F 36% 30.14 in 10.0 mi ENE 3.5 mph - N/A   Clear
7:55 PM 73.8 °F 47.8 °F 40% 30.14 in 10.0 mi Calm Calm - N/A   Clear
8:15 PM 71.1 °F 55.6 °F 58% 30.14 in 10.0 mi Calm Calm - N/A   Clear
8:38 PM 69.3 °F 54.1 °F 59% 30.15 in 10.0 mi West 4.6 mph - N/A   Clear
8:56 PM 66.9 °F 54.9 °F 65% 30.15 in 10.0 mi West 3.5 mph - N/A   Clear
9:15 PM 66.9 °F 53.8 °F 63% 30.15 in 10.0 mi WNW 11.5 mph - N/A   Clear
9:35 PM 66.7 °F 54.7 °F 65% 30.15 in 10.0 mi WNW 6.9 mph - N/A   Clear
9:58 PM 65.5 °F 55.8 °F 71% 30.15 in 10.0 mi WNW 4.6 mph - N/A   Clear
10:15 PM 64.4 °F 56.5 °F 75% 30.16 in 10.0 mi NW 4.6 mph - N/A   Clear
10:35 PM 63.5 °F 56.5 °F 78% 30.17 in 10.0 mi Calm Calm - N/A   Clear
10:55 PM 62.6 °F 56.5 °F 80% 30.17 in 10.0 mi Calm Calm - N/A   Clear
10:56 PM 62.6 °F 56.5 °F 80% 30.17 in 10.0 mi Calm Calm - N/A   Clear
11:18 PM 59.9 °F 55.8 °F 86% 30.17 in 10.0 mi Calm Calm - N/A   Clear
11:36 PM 59.5 °F 55.8 °F 87% 30.18 in 10.0 mi Calm Calm - N/A   Clear
11:55 PM 60.1 °F 56.3 °F 87% 30.18 in 10.0 mi Calm Calm - N/A   Clear